Terminal Aerodrome Forecast
Issued by NWS Paducah, KY

Home | Current Version | Previous Version | Text Only | Print | Product List | Glossary On
Versions: 1 2 3 4 5 6 7 8 9 10 11 12 13 14 15 16 17 18 19 20 21 22 23
873
FTUS43 KPAH 290539
TAFEVV
TAF
KEVV 290539Z 2906/3006 28006KT 4SM TSRA BR SCT004 BKN035CB
      TEMPO 2906/2908 VRB07KT 1 1/2SM +TSRA BR BKN004CB
     FM291000 14008KT 4SM TSRA BR OVC004CB
     FM291600 19008KT P6SM BKN015 OVC030
     FM292000 17012KT P6SM SCT060 BKN120=

USA.gov is the U.S. government's official web portal to all federal, state and local government web resources and services.